Wind_Speed
12 11 11 10 10 10 10 10 10 10 10 10 9 10 10 10 10 10 11 11 10 10 9 8 6 6 5 4 4 4 5 5 6 5 5 5 3 3 4 3 2 2 2 3 4 4 3 2 3 2 3 3 5 5 6 5 4 3 3 5 3 4 4 5 7 7 4 4 7 10 10 8 5 6 7 5 6 8 9 8 9 11 10 10 13 13 18 17
13 12 11 11 10 10 10 10 10 10 9 9 10 10 11 11 11 11 11 11 11 10 9 8 6 6 5 4 4 4 5 5 6 6 5 4 4 5 6 5 3 2 2 2 4 4 3 2 2 3 3 4 5 4 4 4 5 4 3 4 3 5 4 4 7 9 4 3 10 11 9 9 8 10 11 5 4 7 6 6 8 10 11 12 13 15 19 18
13 12 12 11 11 10 9 9 9 9 9 9 9 10 10 10 11 11 11 11 11 10 9 8 7 6 6 5 4 4 5 5 6 6 5 5 6 9 8 6 4 3 2 1 2 3 3 2 2 3 4 5 5 5 4 5 4 2 4 3 4 6 3 3 5 10 7 4 10 10 8 9 9 11 11 6 4 5 5 8 9 11 14 14 14 16 19 19
12 12 11 10 10 9 9 8 8 8 8 8 8 9 9 10 10 11 11 11 11 10 9 8 7 6 6 5 4 4 4 3 4 4 5 7 9 11 9 6 3 3 3 3 1 2 3 2 3 3 4 4 4 5 5 6 3 2 3 3 5 6 3 2 4 7 8 7 11 10 6 7 9 10 10 7 5 4 11 15 13 12 14 15 16 18 19 20
11 10 10 10 10 9 9 8 8 7 7 7 7 8 8 9 9 10 11 11 10 9 9 8 7 7 6 5 4 3 0 1 3 5 6 9 10 11 9 6 3 1 2 3 1 1 2 3 4 3 3 3 4 4 3 5 4 3 1 2 6 7 2 3 6 6 8 9 10 9 7 7 10 9 10 10 6 6 10 14 15 13 11 13 16 17 19 20
10 9 9 9 9 9 9 8 8 8 7 7 7 7 8 8 9 9 10 10 10 9 9 8 7 7 6 5 4 4 3 1 5 8 7 8 9 9 9 6 5 4 4 2 1 1 2 2 4 3 3 3 3 3 2 4 2 2 1 0 6 6 3 6 8 8 10 10 10 9 7 8 10 6 9 14 12 11 9 10 12 14 12 12 15 17 18 19
10 10 9 9 9 9 9 9 8 8 7 7 7 7 7 8 8 8 9 9 10 9 9 9 7 7 6 6 5 5 6 4 7 9 7 8 7 7 6 5 6 5 5 2 2 2 2 2 5 5 5 3 2 2 3 4 3 4 1 0 4 5 5 8 8 8 9 9 10 9 7 9 10 6 6 14 18 16 14 12 11 14 14 14 16 17 16 17
11 11 11 10 10 10 9 9 9 8 8 8 8 8 8 8 8 8 9 9 10 9 9 9 8 8 7 7 5 5 8 7 9 9 8 9 6 6 5 4 4 5 4 3 2 3 3 3 6 6 4 2 2 1 3 4 4 4 2 2 3 3 5 8 7 8 8 7 8 8 8 9 10 7 6 13 17 17 17 14 11 13 15 16 17 17 16 16
11 11 11 11 11 10 10 10 9 9 9 9 9 9 9 8 8 9 10 10 10 10 10 9 9 8 8 7 5 4 6 7 11 11 8 9 7 5 5 3 2 2 2 3 3 4 4 5 6 4 3 3 4 2 3 2 2 1 3 3 3 2 4 8 8 8 8 8 8 8 6 7 8 6 8 15 16 15 16 14 13 13 16 17 17 17 16 16
12 12 11 11 11 10 10 10 10 9 8 9 9 10 10 10 10 10 10 10 10 11 10 10 10 9 8 8 5 3 5 7 12 12 9 9 8 5 4 3 2 1 1 2 3 3 4 5 6 6 5 4 4 3 3 2 1 2 3 1 1 2 4 6 9 10 8 8 9 9 5 5 7 4 7 13 14 15 15 15 15 15 16 18 17 17 16 16
13 13 12 12 11 10 10 10 10 9 9 9 9 10 10 11 11 11 12 12 12 11 10 10 10 10 9 8 7 5 4 7 13 12 10 10 8 6 5 4 3 2 2 2 3 3 4 5 5 5 3 3 3 3 4 4 3 3 3 2 4 4 5 7 9 11 8 5 9 10 4 2 4 4 8 11 13 16 17 17 17 18 18 18 18 17 17 18
15 15 14 13 13 12 11 11 10 10 10 10 10 10 10 11 12 12 13 13 13 12 12 11 10 10 10 9 13 11 5 6 13 13 12 11 9 8 6 5 4 4 3 2 3 3 4 4 4 3 2 4 3 3 4 4 3 3 4 2 6 8 6 7 7 9 8 4 6 7 3 4 5 9 11 9 13 16 17 18 19 19 19 19 19 18 18 19
17 17 16 15 14 14 13 12 12 11 11 11 11 10 10 11 11 12 13 13 14 14 13 12 11 11 9 9 13 13 9 9 13 14 13 12 10 8 6 6 5 5 5 4 3 3 4 3 2 3 5 5 2 3 3 3 3 1 4 2 4 8 6 4 2 5 7 3 5 7 3 6 8 13 11 9 14 17 18 20 20 21 21 20 20 20 20 20
19 19 18 17 16 16 15 14 13 12 12 12 12 12 11 11 11 12 13 13 14 13 13 12 12 11 10 10 11 11 12 12 14 15 14 14 12 8 7 7 6 6 6 5 4 4 4 3 2 3 4 4 4 5 3 4 4 1 1 2 2 2 5 5 0 6 6 4 7 8 3 7 8 11 10 11 15 18 20 22 22 23 22 22 22 22 22 22
21 21 20 19 19 18 18 17 15 14 14 14 14 14 13 12 12 12 12 12 13 13 13 12 11 10 8 10 12 12 13 15 16 17 15 15 13 9 8 8 7 7 7 6 6 6 5 4 2 3 4 4 5 4 3 4 3 3 1 3 3 1 5 8 2 10 6 3 8 7 3 7 9 8 8 13 17 19 21 22 23 24 24 24 24 23 23 23
22 22 22 22 21 20 20 19 18 16 16 15 15 15 14 14 13 12 12 12 12 12 12 11 11 9 5 7 10 11 14 17 18 19 17 17 15 10 9 9 8 8 8 7 7 6 5 4 3 4 3 3 4 4 4 4 4 4 1 3 2 2 3 7 3 7 4 2 5 4 2 4 5 3 5 13 18 20 21 21 23 25 26 26 26 25 25 25
20 21 22 22 22 21 21 21 19 18 17 16 16 15 15 14 13 12 12 11 11 11 10 8 8 8 7 8 9 11 16 19 20 20 19 18 16 12 10 10 10 9 9 9 7 5 5 4 5 3 2 3 3 5 4 2 4 3 1 2 4 3 2 3 4 4 3 3 4 4 3 7 6 2 3 11 17 20 22 24 25 25 27 27 27 27 27 28
16 19 20 21 22 22 21 21 20 19 18 16 15 15 15 14 13 11 11 11 10 8 7 7 5 2 8 13 13 13 14 16 19 20 20 19 16 12 11 10 10 10 9 7 6 5 5 3 4 1 3 3 2 5 3 5 4 3 3 2 3 3 2 4 5 2 5 2 4 4 4 11 13 9 9 12 16 21 25 26 25 25 27 28 29 30 30 31
13 15 17 19 20 20 21 21 20 19 17 16 15 14 13 11 10 9 10 12 11 7 3 11 14 5 3 11 16 15 12 12 17 19 20 19 16 13 11 9 10 11 8 5 3 5 5 3 5 2 1 3 4 7 8 8 7 6 6 5 4 4 4 5 6 5 5 3 5 7 7 11 12 13 13 14 18 22 25 24 23 25 27 29 31 33 33 34
11 13 15 16 17 18 19 19 19 18 17 16 15 12 10 7 4 5 11 16 18 16 8 11 20 13 2 2 11 15 12 11 15 19 19 19 17 14 12 10 9 8 5 4 3 3 4 3 3 4 8 9 9 10 8 5 6 5 5 4 4 5 5 5 5 6 3 4 6 8 9 11 12 12 14 14 16 19 22 22 25 28 30 32 34 35 36 36
12 12 14 15 16 16 17 18 17 17 16 15 15 12 9 10 6 2 10 16 21 25 19 11 15 19 11 3 6 12 12 11 15 18 18 18 17 13 12 10 7 4 3 4 5 2 4 4 6 11 10 8 7 8 5 4 5 3 4 3 3 4 6 7 5 5 1 4 6 6 7 11 12 12 15 11 10 17 24 25 28 33 33 36 36 37 38 36
16 14 14 14 15 16 16 16 16 16 16 15 17 15 12 13 12 7 6 8 14 21 25 21 17 19 18 10 8 12 11 9 13 19 19 20 20 14 12 10 5 3 3 4 6 2 2 3 11 12 5 5 4 5 6 4 3 1 2 2 3 3 4 7 5 3 1 4 5 4 4 9 12 12 14 14 14 21 30 31 34 36 36 38 39 39 38 37
18 17 15 15 15 16 16 15 16 16 16 17 18 17 15 13 13 12 7 4 9 15 22 26 25 23 22 17 12 14 14 9 12 21 23 23 22 17 14 10 5 4 4 5 6 4 3 6 12 10 7 7 3 4 6 3 2 3 3 3 4 3 2 4 5 3 0 2 3 4 5 7 10 9 11 20 24 26 30 32 35 37 37 39 39 38 39 39
20 20 19 17 16 17 16 16 16 16 16 18 18 17 16 13 12 11 7 3 6 10 15 21 25 28 28 22 16 17 18 13 12 20 26 27 23 15 12 11 6 5 5 8 9 7 6 6 5 8 9 8 5 4 7 5 3 5 6 6 6 5 6 7 4 4 3 3 3 3 6 6 8 10 11 13 14 20 27 28 31 37 38 39 37 37 40 40
22 22 21 19 19 18 16 16 18 16 17 19 17 16 16 13 9 6 4 2 4 5 9 14 18 24 28 25 20 17 16 15 15 19 26 31 27 14 8 10 7 4 8 8 6 6 8 5 4 8 6 7 7 4 6 7 4 5 6 10 10 9 8 7 3 5 4 5 3 3 4 6 5 8 10 6 2 10 18 19 27 35 35 36 38 40 40 38
24 23 24 22 20 19 18 17 16 16 18 18 15 15 15 12 7 5 2 2 4 3 4 9 11 13 20 24 23 16 6 12 18 20 25 31 30 15 6 7 4 4 7 6 3 3 5 5 6 7 6 7 6 5 6 8 5 4 5 9 12 9 7 6 3 1 1 4 4 2 2 7 6 7 9 5 5 10 12 12 21 31 32 35 40 41 39 37
27 26 25 24 23 23 22 18 17 19 19 16 15 15 15 12 8 5 3 4 4 5 6 8 9 10 13 19 28 19 2 7 15 19 26 30 28 16 7 5 3 3 6 6 2 3 3 5 4 6 6 6 6 5 6 8 8 4 5 6 9 8 8 7 5 4 4 3 4 3 2 5 8 8 6 5 8 10 11 11 16 27 32 34 37 38 37 37
29 28 26 27 26 27 26 21 21 23 18 14 15 17 15 14 11 6 4 1 3 5 6 6 9 12 11 17 31 21 4 10 10 13 27 30 27 15 6 8 7 5 8 8 4 3 4 7 8 7 5 4 7 5 7 11 6 5 3 5 6 6 5 4 5 4 2 3 5 4 1 4 8 6 3 0 6 8 11 13 15 24 30 30 32 34 34 36
28 28 29 29 27 28 27 26 28 24 18 14 14 17 17 16 12 6 3 3 2 3 3 6 8 10 12 17 25 17 7 7 3 11 25 26 26 13 2 9 9 6 9 8 6 2 2 5 8 9 6 6 6 3 8 12 5 4 6 7 5 5 5 4 4 3 2 2 6 5 3 4 8 4 2 2 3 7 10 12 14 20 23 23 26 30 31 34
27 28 29 29 30 31 28 31 32 23 18 17 15 20 23 18 9 4 3 3 1 2 3 7 7 10 15 14 10 7 5 3 3 13 18 15 20 11 2 6 7 4 3 6 5 3 1 1 3 5 4 5 5 2 3 8 7 8 7 6 6 6 5 4 3 4 1 5 7 8 9 6 7 3 4 3 4 7 9 8 11 15 16 16 20 23 26 31
28 29 31 31 35 35 32 35 34 24 21 20 22 27 25 12 3 4 7 1 1 2 4 3 3 9 16 12 6 5 3 1 6 14 10 5 10 7 2 5 4 3 1 6 5 3 3 0 1 3 4 5 7 5 3 3 7 7 4 5 4 4 4 4 4 3 1 6 5 6 7 8 9 6 3 6 6 5 7 7 9 11 11 11 13 16 20 25
28 28 30 33 36 37 38 39 32 25 23 22 28 29 17 4 2 5 5 2 0 4 5 4 3 7 11 9 6 7 4 2 6 9 7 4 6 7 7 6 5 3 2 7 4 2 2 5 2 0 4 7 7 4 4 3 2 4 4 6 4 3 3 2 3 1 4 7 3 1 2 4 10 8 6 8 9 8 10 12 14 13 14 14 12 13 16 21
27 26 27 32 36 39 42 40 30 25 24 26 31 23 8 3 6 7 7 3 1 3 3 4 3 6 10 7 4 6 4 2 6 6 4 5 5 8 7 5 5 3 2 6 3 1 3 5 1 1 3 9 10 6 3 1 4 6 5 6 5 2 1 3 3 2 5 6 4 1 1 4 6 4 9 13 13 15 15 17 20 20 20 19 16 14 15 19
24 25 26 29 34 38 41 39 33 28 27 32 28 13 5 5 4 7 11 8 1 1 2 3 6 6 8 6 4 7 5 3 6 5 3 6 5 7 6 6 7 2 3 4 3 6 5 6 5 7 4 11 13 9 7 6 5 7 5 6 6 5 5 4 3 4 5 4 4 2 2 4 2 3 8 9 10 15 19 22 22 23 24 22 20 17 16 19
22 24 24 26 32 38 39 40 37 31 33 34 19 5 7 6 3 5 10 7 1 2 2 3 7 7 5 3 2 6 5 3 5 5 3 6 6 7 7 8 11 6 5 4 2 4 5 7 7 4 3 12 12 7 7 8 2 3 3 4 4 6 5 2 3 5 2 2 3 2 4 5 3 6 9 7 8 11 19 23 22 27 30 25 23 21 19 21
22 23 22 24 32 38 39 41 39 35 38 31 10 4 9 8 5 6 7 8 6 5 5 3 4 4 5 3 2 6 3 1 5 4 3 4 4 6 6 6 11 11 8 7 2 3 3 5 5 1 1 5 6 5 5 4 3 2 3 4 4 4 5 2 3 1 3 3 4 3 6 5 3 7 8 6 8 9 11 14 18 27 28 23 25 26 22 22
21 23 23 25 30 33 37 41 40 39 39 24 7 7 7 6 5 5 5 10 9 8 8 4 3 5 7 5 4 7 4 1 5 5 4 3 3 7 7 4 8 14 14 9 2 2 5 4 5 1 2 3 0 5 4 3 4 5 4 6 3 2 2 2 2 3 3 4 5 2 6 6 2 6 4 2 8 11 9 10 14 20 20 21 28 27 23 22
20 21 25 30 29 29 35 41 40 42 35 15 7 10 5 6 9 5 5 9 9 9 8 6 6 6 7 7 5 7 6 4 5 5 4 3 5 8 10 5 8 17 21 13 3 3 4 2 5 1 3 3 3 5 2 5 3 4 4 6 5 2 1 2 2 2 1 3 5 3 5 5 5 6 2 3 10 12 12 11 11 13 16 24 29 25 21 20
16 15 21 29 29 26 31 38 43 42 25 6 8 10 5 10 14 10 11 10 7 8 8 8 8 5 5 8 5 6 8 8 8 6 5 5 5 7 12 10 8 14 22 17 7 2 3 3 4 1 1 1 3 3 5 1 3 4 3 3 2 2 4 3 3 3 3 2 4 3 4 5 6 6 6 10 12 11 11 10 8 12 22 28 27 22 20 21
15 10 14 23 25 22 26 36 41 31 12 5 10 7 2 6 10 12 18 15 7 7 8 9 9 6 6 7 4 5 7 8 8 7 5 6 5 4 9 11 5 6 15 17 10 3 3 4 4 2 2 1 2 4 7 8 6 3 4 5 3 1 2 1 1 2 4 3 2 3 6 8 5 4 8 11 10 10 11 9 8 16 24 24 20 20 21 21
16 9 10 16 17 19 28 32 25 14 6 6 9 6 3 3 4 10 18 17 10 6 5 6 8 8 6 6 5 5 6 6 7 7 4 6 7 4 8 15 11 7 9 9 9 6 4 4 4 2 1 3 5 5 5 8 8 7 7 8 8 6 4 2 3 2 3 3 4 3 7 10 5 4 6 7 6 7 10 10 9 16 21 18 16 17 19 20
16 8 10 12 12 19 29 21 10 9 8 8 10 8 5 1 2 6 11 10 7 3 1 3 6 8 6 7 8 6 6 6 7 7 5 8 11 7 10 20 20 16 13 6 7 8 4 3 3 3 4 5 6 4 3 5 4 3 4 5 6 7 6 6 6 4 3 3 3 4 4 10 4 3 4 4 3 4 7 11 12 17 18 16 17 17 17 18
18 16 14 11 14 24 25 10 5 8 5 7 11 8 5 2 1 4 7 9 6 3 3 3 4 7 6 4 7 8 8 7 8 10 8 7 10 10 11 20 21 15 10 4 3 5 4 3 4 2 2 2 4 4 2 1 2 1 2 3 6 8 8 6 5 4 4 5 5 3 5 9 4 0 3 6 4 4 7 10 13 17 16 14 15 16 16 17
19 22 19 13 18 27 20 5 5 8 5 5 5 5 7 6 4 6 6 8 7 3 3 3 2 5 4 2 4 7 9 8 7 11 10 5 6 9 13 22 21 13 9 7 7 9 6 3 4 3 1 3 3 3 2 2 2 3 4 5 7 10 9 3 0 2 3 9 10 6 9 9 3 3 3 4 4 4 8 10 11 14 13 11 12 14 15 16
13 15 18 20 29 34 24 14 11 8 8 10 5 6 9 5 7 13 11 8 9 6 4 4 5 5 4 3 3 3 7 8 6 6 6 4 3 3 10 21 23 16 14 14 16 16 8 3 6 7 7 8 6 5 5 4 3 2 4 7 9 12 13 7 3 4 7 9 9 8 13 9 2 3 4 4 4 5 7 7 10 12 11 10 11 12 16 17
8 5 8 16 30 36 29 27 22 9 8 12 8 8 12 8 7 14 13 9 11 11 5 2 5 7 4 6 6 5 8 9 4 1 3 6 4 1 6 17 21 19 15 15 21 16 4 3 10 12 12 13 10 5 4 8 7 7 9 12 12 13 15 11 6 8 8 3 6 14 17 13 9 5 4 5 4 5 6 7 10 12 10 12 14 15 18 19
7 2 3 7 15 20 18 20 19 10 9 14 8 6 13 14 8 9 13 12 12 14 8 1 4 6 6 9 10 8 10 8 4 3 5 6 4 2 3 8 12 14 10 10 18 13 3 4 12 14 16 16 11 5 7 10 12 13 14 14 14 14 14 13 13 13 7 4 10 17 11 13 21 13 8 8 5 3 7 12 17 18 17 19 20 19 19 20
12 4 5 7 5 5 7 10 13 13 15 14 8 7 13 16 12 8 11 14 13 14 9 2 6 10 11 13 10 8 10 9 7 9 9 6 3 2 2 2 6 10 6 5 9 7 3 6 10 11 15 18 12 5 7 9 9 11 14 15 16 16 16 18 21 17 10 9 18 16 9 13 24 15 8 8 7 10 17 20 22 23 23 23 22 20 21 22
15 9 10 9 4 3 5 4 6 11 16 14 10 10 13 16 18 13 9 8 8 12 12 9 11 16 15 13 10 8 10 10 10 12 11 8 6 4 3 2 5 7 6 5 4 2 3 5 6 8 11 17 14 6 7 9 6 6 11 14 16 19 21 23 23 20 15 14 20 16 6 14 20 11 7 9 12 19 23 20 18 19 22 22 22 22 24 24
17 14 11 9 6 8 9 6 3 5 10 12 11 11 12 14 17 15 12 12 9 9 14 17 18 18 16 15 13 12 14 13 13 14 12 10 7 5 6 5 3 2 2 3 2 2 3 3 2 6 6 13 12 6 7 9 8 7 9 10 14 19 20 20 18 16 14 14 19 17 13 18 14 4 7 13 15 17 16 16 19 22 23 23 23 24 24 25
27 22 17 7 2 5 7 4 2 3 4 6 8 9 12 15 18 15 13 18 19 13 15 20 21 16 14 16 15 14 17 17 18 18 16 17 14 9 6 5 5 5 3 4 3 2 3 2 2 4 6 11 9 8 8 7 5 6 9 12 18 17 14 14 13 13 14 15 18 15 14 18 11 2 5 11 10 11 13 19 25 28 27 25 24 25 26 27
34 28 22 12 3 4 5 1 3 5 4 4 6 8 8 8 11 12 10 14 20 21 20 23 22 14 10 14 19 27 33 31 27 21 16 18 18 11 7 6 5 6 5 4 2 3 5 4 2 4 7 9 6 9 9 5 3 7 12 17 20 14 9 10 12 14 16 15 13 13 15 19 14 6 8 8 6 10 16 23 29 30 29 27 27 28 29 30
Wind_Direction
196 199 204 209 212 217 218 218 219 216 213 211 209 203 199 197 196 196 193 192 192 194 196 201 210 220 233 237 243 256 249 239 236 248 249 233 227 201 174 161 170 181 194 200 194 202 209 192 188 150 113 88 72 71 65 59 63 77 94 89 129 174 190 182 179 192 170 187 194 183 177 154 159 172 157 141 148 152 158 181 181 193 210 198 193 190 186 186
195 198 203 206 210 216 218 218 217 214 211 207 204 199 197 197 198 197 195 196 196 198 201 208 217 227 240 246 253 264 256 247 241 246 244 231 209 175 155 136 116 119 149 199 214 226 225 197 174 129 110 93 65 66 74 52 55 80 102 96 177 200 199 196 193 199 185 181 182 177 181 170 174 175 167 167 166 153 150 175 177 185 190 187 192 191 191 194
195 196 198 200 203 208 210 212 211 210 209 206 204 200 199 199 200 200 199 199 199 201 207 214 224 231 242 248 256 269 265 254 245 248 238 216 187 169 156 138 103 80 86 81 223 228 230 213 163 121 95 91 62 64 64 41 46 71 93 94 223 213 206 234 204 201 214 202 169 168 185 183 182 177 179 191 172 180 202 191 184 194 195 191 192 192 195 199
191 190 190 191 193 195 197 201 203 205 206 205 205 203 203 205 205 204 203 201 201 205 212 219 227 232 242 248 260 273 277 268 239 228 208 187 175 172 166 157 123 63 48 34 318 229 216 192 172 141 90 84 51 58 43 29 40 55 101 144 205 180 164 213 178 196 213 192 168 164 170 181 185 182 191 176 145 239 236 215 212 218 211 202 196 194 198 204
185 185 183 183 184 185 187 190 193 194 197 200 200 202 204 207 209 208 205 203 205 211 219 226 230 235 244 245 262 256 196 30 196 170 159 169 171 178 180 186 206 313 4 6 324 195 160 155 158 133 89 74 37 53 28 28 71 68 38 212 170 152 145 170 149 159 176 168 163 159 157 179 183 191 206 187 178 235 236 229 230 233 229 217 207 201 201 206
183 183 183 183 182 182 184 185 188 189 191 194 195 199 202 204 206 206 207 208 212 220 226 230 232 238 246 243 260 230 187 96 170 160 149 165 172 183 192 214 236 270 300 321 316 188 133 133 149 114 72 56 28 61 41 15 79 104 347 252 165 178 182 160 150 148 161 167 170 173 181 184 178 205 222 209 222 238 245 247 236 236 232 221 214 209 207 210
187 187 187 187 188 188 188 187 189 191 191 194 197 201 203 205 205 206 210 215 221 227 229 233 236 240 246 246 254 233 233 235 177 169 165 170 179 195 204 237 249 269 274 272 295 226 158 127 131 104 77 72 53 76 42 23 72 112 125 139 168 205 194 163 158 161 172 186 193 193 198 194 191 209 226 223 234 244 252 256 241 234 227 216 212 211 212 213
199 198 196 195 197 197 197 198 197 196 195 197 201 204 208 210 212 214 215 220 226 230 233 236 238 240 248 248 254 253 251 238 191 182 178 180 190 202 216 257 264 269 256 253 266 202 160 123 123 107 84 84 118 133 37 39 46 74 142 195 151 180 187 172 175 184 194 207 206 202 201 204 203 209 238 235 237 241 246 250 240 225 219 216 211 211 214 217
209 206 205 204 204 203 203 205 206 206 205 205 208 210 213 214 218 222 224 226 228 232 236 239 242 241 246 248 257 267 252 224 197 193 185 190 194 200 223 246 261 265 232 236 224 189 158 127 125 122 133 135 118 82 45 60 346 49 134 157 145 167 189 190 203 202 207 216 202 199 209 216 209 219 259 245 238 237 234 235 231 220 216 215 213 216 219 224
217 214 213 212 211 210 209 208 208 211 213 216 218 218 220 221 223 227 230 232 232 235 237 240 243 241 245 248 248 247 240 212 197 198 193 193 194 200 215 210 226 214 171 227 210 176 148 124 118 120 122 127 113 56 36 74 107 97 95 92 182 214 224 217 222 218 216 223 210 203 217 228 203 201 253 240 229 229 224 220 220 218 217 217 219 223 227 233
220 218 217 217 216 217 217 216 214 213 216 221 224 226 227 227 228 229 232 234 235 236 238 240 244 244 246 245 228 218 235 211 197 197 196 192 191 196 201 194 189 161 146 219 201 164 142 121 118 133 122 117 114 59 55 83 97 76 39 314 292 311 279 237 227 227 219 231 224 208 223 245 176 195 241 234 222 223 221 218 217 217 219 221 224 228 233 236
226 223 221 220 220 220 221 224 224 224 224 225 228 231 232 232 231 232 233 235 237 237 237 239 242 244 246 248 239 233 245 211 197 199 200 195 190 190 198 197 183 166 161 188 196 171 152 132 116 137 135 136 135 67 81 88 80 54 47 323 305 350 323 242 227 225 204 225 222 190 257 274 203 222 234 225 215 215 217 218 219 218 221 225 228 233 235 235
230 228 227 225 224 223 224 226 229 231 233 235 235 235 237 239 237 236 235 235 237 237 236 236 238 243 243 249 248 242 242 223 204 205 204 199 196 196 203 201 194 182 171 177 190 173 157 146 114 122 123 128 136 112 117 78 67 47 54 40 318 357 334 256 221 202 186 210 188 157 260 267 239 239 229 214 210 207 210 216 220 220 222 226 229 234 236 234
234 233 232 230 230 229 228 229 232 235 239 244 244 242 241 242 244 243 240 237 237 237 236 236 236 237 239 245 251 246 237 226 213 210 207 204 202 205 212 205 201 193 182 180 179 174 160 141 120 124 116 108 124 126 91 28 45 18 22 29 9 355 283 289 109 157 163 214 180 151 249 263 265 260 235 220 215 208 213 216 219 223 224 227 230 233 236 235
240 239 237 235 234 233 233 234 234 237 241 245 248 249 247 245 247 246 243 240 236 237 236 235 235 231 239 247 248 243 233 224 215 210 208 205 207 217 219 207 203 198 192 186 177 175 170 167 156 116 109 115 121 111 28 4 19 30 8 304 346 174 263 308 261 169 162 205 175 154 247 267 276 276 239 217 212 211 218 221 222 224 226 228 231 233 235 236
242 242 241 241 239 238 239 239 239 239 240 243 247 250 251 250 249 246 244 240 235 236 233 234 233 223 235 254 244 239 230 222 214 210 208 206 213 224 218 210 208 204 199 191 185 183 185 185 140 103 119 133 114 87 45 13 343 2 78 247 274 176 269 322 287 198 186 132 178 196 247 274 288 299 222 203 206 211 218 226 227 228 230 230 233 234 235 234
243 242 243 243 243 243 243 244 244 242 243 245 247 251 254 253 251 247 242 236 231 229 226 228 229 225 242 253 243 238 229 220 214 211 208 210 220 224 211 209 208 205 199 193 194 187 184 168 135 122 84 85 96 92 65 331 294 313 358 243 241 195 206 300 309 252 196 147 209 227 240 253 264 305 216 203 208 212 219 230 231 231 233 233 235 236 236 234
245 242 242 243 244 245 244 246 245 245 246 247 249 251 252 252 250 245 236 229 218 209 219 212 187 215 249 240 234 234 230 222 215 212 210 214 222 218 204 209 210 200 189 187 196 176 165 129 115 120 22 38 80 106 139 227 209 200 195 213 250 239 214 248 287 249 165 176 231 206 241 258 266 275 251 225 214 214 225 233 235 236 236 236 237 237 238 237
248 242 240 240 242 243 244 245 244 245 245 245 247 245 246 247 244 239 228 217 199 180 208 206 190 169 237 229 228 231 233 223 213 212 212 213 214 206 196 205 206 191 171 164 195 165 149 100 85 99 245 219 194 167 193 206 171 166 173 163 195 231 252 236 253 248 176 172 233 212 227 249 261 268 254 234 218 219 231 237 238 240 239 238 239 239 239 239
247 243 239 238 238 239 242 243 243 243 241 240 237 230 228 213 203 236 220 213 211 208 215 211 205 205 198 234 223 224 225 216 210 207 206 207 203 194 187 189 187 181 170 160 182 168 139 130 147 200 217 211 202 195 196 166 136 129 130 149 198 214 262 250 252 282 189 168 242 224 225 246 252 261 261 242 218 222 234 239 240 240 239 240 239 240 240 240
241 241 238 237 236 236 238 239 240 239 235 232 223 214 209 193 183 227 213 220 230 225 226 231 216 215 224 259 223 214 209 202 204 201 198 199 191 183 183 176 160 175 214 146 126 120 129 151 215 223 219 203 194 194 176 127 126 107 124 187 248 216 252 253 242 293 173 171 261 241 226 253 251 254 264 247 205 223 232 232 239 241 240 241 241 242 241 240
238 238 237 237 234 235 236 236 237 235 228 222 215 211 212 210 212 222 215 237 249 237 233 234 230 223 222 230 219 205 199 190 198 197 192 187 184 185 181 168 157 174 185 122 104 100 147 213 236 229 185 115 124 165 167 165 160 140 132 175 264 241 270 278 271 305 155 180 264 272 241 257 258 256 260 245 222 236 239 235 242 244 241 242 241 242 241 239
237 236 235 236 233 233 233 233 232 230 223 218 216 214 216 221 222 228 235 272 273 251 237 233 235 230 220 220 216 202 198 196 197 194 189 183 183 190 180 165 165 152 153 168 153 153 185 243 242 215 139 121 122 126 136 139 191 197 173 175 244 241 256 277 288 320 258 211 268 293 284 272 268 264 259 249 240 244 249 246 248 248 244 246 248 247 244 240
236 233 233 233 232 231 228 229 228 225 222 220 221 217 218 223 224 232 237 265 287 258 242 237 234 232 225 221 217 207 206 212 207 195 190 185 180 185 188 174 154 137 180 196 179 184 214 252 229 164 153 166 158 121 135 152 232 236 205 199 224 225 215 232 285 331 332 332 0 339 302 274 254 254 254 256 244 245 251 249 249 249 247 248 250 249 247 243
235 234 233 228 229 228 223 225 225 220 219 222 222 215 217 221 218 229 228 268 296 263 247 236 229 234 228 221 217 209 208 222 222 204 195 191 184 175 182 182 165 175 201 194 190 227 243 246 135 132 162 175 157 159 173 173 207 269 228 207 216 219 223 240 309 1 352 320 336 17 299 274 258 253 256 274 276 250 250 244 245 249 248 245 245 245 244 243
233 234 233 228 226 222 218 222 220 218 220 222 220 211 213 211 198 199 152 40 294 239 208 208 212 225 217 211 204 191 209 237 224 211 199 196 193 179 161 174 166 193 189 170 193 253 241 205 139 127 153 164 171 209 211 178 168 266 244 206 212 211 218 236 209 117 247 260 289 66 221 271 286 262 252 238 230 252 253 247 250 252 249 244 244 245 243 240
229 230 231 230 227 218 215 219 219 218 219 221 217 207 205 193 173 168 115 19 278 191 151 179 188 190 198 199 189 177 195 211 198 208 202 196 196 189 182 180 147 189 165 130 227 253 168 177 151 123 134 149 177 219 218 171 152 237 250 183 190 198 209 218 184 191 234 258 313 23 130 271 279 263 258 201 208 254 265 260 259 254 249 245 244 245 243 242
228 227 229 231 232 228 222 221 225 223 219 221 213 200 192 180 165 139 110 330 252 148 145 175 170 178 185 184 184 180 144 147 158 202 198 194 196 193 207 202 171 182 172 151 217 255 139 177 189 161 147 172 197 213 182 156 161 246 221 136 155 171 180 168 144 191 297 13 295 302 98 272 269 257 325 71 204 246 260 254 255 252 251 248 247 247 244 244
232 229 228 227 231 235 231 226 227 226 221 219 207 192 179 167 154 106 92 232 195 119 150 164 155 171 161 164 185 187 150 146 136 183 183 189 195 190 222 205 180 171 191 198 219 240 116 191 192 165 164 201 206 216 168 163 188 201 130 93 78 73 80 86 109 138 43 342 245 235 160 255 271 230 122 44 210 230 245 249 253 256 256 254 253 252 247 243
239 235 232 227 223 224 228 229 227 222 213 206 194 181 168 156 137 112 188 219 177 117 135 158 169 169 151 150 191 202 159 156 103 150 167 184 191 188 107 172 169 141 205 271 251 235 341 125 169 167 183 183 144 81 158 168 155 132 108 66 52 34 40 52 51 85 35 271 233 212 189 203 271 260 168 192 207 210 225 245 261 265 264 258 257 255 248 243
240 237 232 230 226 219 219 228 226 213 201 192 178 168 160 147 109 174 198 213 39 145 128 160 180 157 157 158 181 191 162 133 135 148 159 169 179 184 124 145 146 97 335 285 269 294 330 109 192 197 175 135 106 69 30 113 132 120 91 80 72 346 8 23 354 52 243 258 237 221 195 188 239 259 217 237 251 225 216 235 257 268 273 267 261 258 251 244
240 241 236 234 235 227 222 231 228 205 195 183 168 163 153 140 233 205 201 71 46 192 160 182 194 162 170 170 176 177 154 154 167 164 167 155 168 190 195 187 166 124 241 240 246 338 264 235 261 291 178 160 124 81 34 34 104 114 97 113 117 321 355 340 303 96 234 259 284 316 140 205 243 247 234 250 264 247 225 230 245 261 274 278 275 267 256 244
240 244 241 234 237 233 228 233 227 202 190 174 165 162 154 197 202 200 203 174 192 210 142 137 145 152 163 165 188 173 141 178 179 172 174 155 176 209 224 224 183 157 194 197 191 197 264 293 285 118 229 193 167 155 171 193 178 167 148 147 158 158 187 259 268 277 265 271 307 6 143 250 276 262 231 232 240 242 239 244 252 262 269 274 277 272 258 244
239 242 244 238 239 237 231 231 223 205 188 172 164 164 190 213 191 187 206 209 213 38 75 105 115 138 166 179 206 168 156 222 176 155 163 154 175 216 228 234 211 172 94 144 177 180 217 287 205 179 200 186 184 191 173 138 160 187 164 147 167 167 173 211 215 229 259 286 299 291 188 215 220 274 252 245 255 253 250 254 259 265 268 271 274 266 252 242
239 242 243 238 237 236 232 229 224 210 187 171 162 175 198 199 190 195 207 209 200 48 36 70 105 133 195 246 265 185 178 224 173 149 166 173 192 207 200 211 202 174 138 180 225 164 196 266 237 213 160 166 183 195 138 108 142 220 128 127 196 187 168 197 203 184 189 305 295 229 222 221 207 269 269 267 284 262 247 252 257 261 262 265 267 261 251 242
242 242 242 237 233 233 232 227 222 208 186 172 164 205 199 202 194 186 187 181 179 137 105 79 90 134 205 231 254 218 206 146 152 155 197 203 226 212 204 218 196 183 182 184 189 145 175 275 279 339 47 173 184 174 136 136 186 169 136 184 213 173 147 184 265 58 83 264 271 202 243 284 312 279 268 244 259 260 253 256 252 252 257 261 262 258 251 243
242 240 242 237 231 232 231 226 221 205 185 174 189 206 201 226 198 169 178 175 164 140 134 166 178 167 195 205 213 209 198 130 156 173 195 196 242 211 203 237 193 191 202 193 197 199 171 259 286 121 187 260 63 112 87 48 118 128 181 200 165 73 85 122 247 351 47 254 270 218 246 279 280 273 312 130 227 250 259 256 250 253 258 259 258 255 249 245
243 244 245 241 235 232 228 225 218 200 185 176 213 208 202 224 204 185 179 167 149 150 170 201 194 178 187 195 205 190 175 177 178 188 186 186 244 204 181 208 200 198 205 198 214 246 161 235 291 110 186 287 31 115 97 15 63 122 175 176 135 139 217 122 173 225 183 251 280 285 270 264 210 225 270 178 210 231 241 241 249 260 255 252 255 254 247 242
241 244 249 246 238 231 228 222 207 194 188 188 208 207 209 213 213 206 185 176 161 166 191 210 198 190 190 185 180 169 181 190 174 178 189 187 234 206 180 194 208 202 198 188 193 233 140 199 270 320 222 316 35 160 191 206 35 55 101 156 136 146 180 168 161 175 171 222 275 312 310 268 216 200 202 210 212 213 225 234 240 247 248 250 254 254 248 242
235 234 253 248 237 232 228 215 201 193 196 208 201 208 214 202 216 211 196 193 185 175 200 213 196 193 199 189 175 166 192 202 178 183 205 190 213 234 193 188 181 185 187 184 191 185 132 205 241 314 338 165 188 208 191 179 167 145 156 177 191 119 114 161 183 138 137 162 215 269 284 268 236 185 192 207 215 211 210 216 228 240 247 255 262 261 257 249
221 224 254 241 235 228 212 201 197 200 212 210 210 225 234 193 192 204 203 202 201 193 201 205 197 198 187 180 198 192 185 195 187 193 217 201 208 239 204 191 175 145 156 180 203 196 178 194 184 177 218 203 226 240 203 191 185 180 189 192 187 173 141 169 232 203 137 173 185 186 267 269 239 182 200 200 206 218 209 205 227 244 249 264 279 277 270 260
209 221 245 223 219 212 198 190 197 209 206 211 215 212 205 188 151 191 200 200 205 212 194 191 202 207 194 186 200 188 166 186 194 195 220 216 210 217 202 193 181 160 150 173 208 191 154 126 157 197 212 212 241 267 221 207 189 160 200 199 179 176 171 180 214 210 162 214 186 129 265 273 252 168 213 226 213 224 217 210 232 250 255 269 283 286 282 269
216 229 237 214 206 200 191 191 220 208 210 217 211 199 184 184 152 181 197 199 197 180 181 203 204 208 210 188 184 181 180 196 197 198 215 225 218 222 202 185 176 161 155 170 214 173 135 133 190 229 317 308 307 326 336 174 138 162 232 181 169 196 196 184 199 183 166 209 195 145 249 264 294 18 252 273 272 250 234 224 238 256 262 271 282 288 286 272
231 230 226 211 205 197 188 193 215 209 227 217 199 187 192 204 195 186 201 204 194 163 181 213 214 208 214 119 149 190 196 201 208 208 212 218 220 225 202 184 175 167 180 194 176 167 169 180 181 183 304 330 335 326 287 251 181 200 221 191 188 198 190 171 150 141 204 218 189 184 239 242 290 325 267 291 314 284 255 242 244 259 268 277 285 291 287 275
252 237 221 207 202 197 196 206 206 207 217 213 213 195 194 213 208 202 209 204 192 184 190 207 190 179 180 137 134 205 212 214 226 223 220 230 244 239 203 193 186 186 203 197 166 159 171 184 172 186 213 219 219 222 218 197 168 192 208 195 197 194 187 194 202 190 231 223 176 198 238 239 319 322 263 295 326 299 272 255 244 250 266 281 286 294 291 279
252 241 216 201 201 202 206 210 209 211 211 210 219 206 202 216 211 204 209 208 201 198 195 194 172 164 168 180 181 204 223 224 224 213 226 223 230 291 207 202 200 205 210 186 162 156 153 199 189 199 214 218 220 217 157 130 145 200 209 194 197 200 193 196 208 213 220 193 186 222 235 251 266 237 219 265 271 267 275 266 254 254 268 284 288 292 289 280
238 225 199 193 204 214 218 213 210 211 207 206 201 189 204 213 214 201 202 209 209 201 199 205 174 179 184 188 194 207 213 213 197 201 227 221 225 292 237 211 217 224 224 181 166 157 112 204 202 207 220 229 229 199 157 151 168 198 202 193 202 203 192 197 214 217 181 135 238 235 214 243 256 236 211 243 245 255 270 260 259 266 275 281 281 279 277 274
230 248 236 212 196 224 233 219 215 213 210 208 200 193 204 208 211 202 197 210 212 198 197 222 208 208 203 194 200 209 203 206 209 213 224 220 201 237 250 236 227 222 215 178 170 152 140 206 208 206 222 237 234 177 166 179 180 194 197 196 202 198 193 205 216 215 180 186 242 240 170 218 253 250 223 224 212 228 250 255 260 267 269 269 268 265 267 268
225 247 265 252 236 285 300 285 235 221 214 209 204 206 206 205 209 206 190 197 210 199 196 206 215 215 212 204 202 204 201 203 210 212 212 205 189 178 196 237 228 210 182 159 175 172 181 209 204 188 216 242 238 188 169 191 188 201 206 202 203 201 201 208 215 217 207 216 245 253 224 241 258 261 236 223 218 233 249 259 261 259 257 256 256 256 260 262
222 227 246 258 251 263 287 304 274 238 224 213 210 212 210 206 207 207 194 186 190 193 196 208 218 212 206 206 203 210 212 204 211 215 197 189 201 191 193 204 185 178 166 158 187 206 188 202 157 148 204 248 239 191 175 191 190 210 220 216 215 212 209 212 217 218 216 231 248 257 266 264 261 247 250 248 235 238 254 262 258 256 253 250 248 251 255 260
225 227 232 243 252 237 252 263 224 237 245 222 213 213 216 216 209 204 204 201 198 195 191 205 219 214 206 209 207 217 222 212 219 223 197 191 204 194 195 206 151 143 171 171 166 160 174 199 75 123 207 244 227 181 189 193 183 224 238 229 222 216 209 212 216 215 210 220 238 246 254 258 248 176 260 258 234 229 243 248 252 256 254 248 246 250 256 262
221 224 227 228 231 204 203 194 194 219 245 227 214 219 228 235 216 201 210 210 208 211 205 204 215 215 205 208 211 221 225 221 225 230 211 206 213 201 198 212 165 155 165 152 158 170 161 172 165 156 208 243 220 172 179 170 170 237 241 231 223 210 196 208 217 220 214 210 221 229 235 248 252 245 259 258 218 218 235 242 247 253 254 252 252 254 259 265
Height
1527 1528 1529 1530 1531 1532 1533 1533 1534 1534 1535 1535 1536 1537 1538 1538 1539 1540 1541 1541 1542 1542 1543 1543 1544 1544 1544 1544 1544 1544 1544 1543 1543 1543 1543 1543 1543 1543 1543 1543 1543 1543 1543 1542 1542 1542 1542 1542 1542 1542 1541 1541 1541 1541 1541 1541 1541 1542 1547 1551 1554 1561 1558 1555 1557 1556 1554 1552 1552 1553 1554 1555 1556 1556 1556 1557 1558 1558 1558 1558 1558 1558 1558 1558 1559 1559 1559 1560
1526 1527 1528 1529 1530 1531 1532 1533 1533 1534 1534 1535 1536 1536 1537 1538 1538 1539 1540 1541 1541 1542 1543 1543 1544 1544 1544 1544 1544 1544 1543 1543 1543 1542 1542 1543 1543 1543 1544 1543 1543 1543 1543 1542 1542 1542 1542 1542 1542 1542 1542 1541 1542 1542 1542 1542 1542 1544 1550 1552 1553 1557 1554 1551 1552 1552 1552 1551 1551 1553 1554 1555 1555 1555 1556 1557 1558 1558 1558 1558 1558 1558 1558 1558 1558 1559 1559 1560
1525 1526 1527 1528 1529 1531 1532 1532 1533 1534 1534 1535 1535 1536 1536 1537 1538 1539 1539 1540 1541 1542 1542 1543 1543 1544 1544 1544 1544 1543 1543 1543 1542 1542 1542 1542 1543 1543 1544 1544 1543 1543 1543 1543 1543 1543 1542 1542 1542 1542 1542 1542 1542 1542 1542 1542 1543 1544 1548 1551 1552 1553 1551 1551 1551 1551 1551 1551 1551 1553 1554 1555 1555 1555 1556 1556 1557 1558 1557 1557 1557 1557 1556 1557 1557 1558 1558 1559
1525 1526 1526 1528 1529 1530 1531 1532 1533 1533 1534 1535 1535 1536 1536 1537 1538 1538 1539 1540 1541 1541 1542 1543 1543 1543 1544 1544 1544 1543 1543 1542 1542 1542 1542 1542 1543 1543 1544 1544 1544 1544 1543 1543 1543 1543 1542 1542 1542 1542 1542 1542 1543 1543 1543 1543 1544 1545 1547 1549 1550 1550 1551 1550 1550 1550 1551 1551 1552 1553 1554 1555 1555 1555 1555 1555 1557 1557 1555 1554 1554 1555 1555 1556 1556 1557 1557 1558
1525 1526 1527 1527 1528 1529 1530 1531 1532 1533 1534 1534 1535 1536 1536 1537 1537 1538 1539 1540 1540 1541 1542 1542 1543 1543 1543 1543 1543 1543 1543 1543 1542 1541 1542 1542 1543 1543 1544 1544 1544 1544 1544 1543 1543 1543 1543 1542 1542 1542 1543 1543 1544 1544 1545 1545 1545 1547 1548 1549 1549 1550 1550 1550 1550 1550 1550 1551 1552 1553 1554 1554 1554 1555 1554 1554 1554 1554 1552 1553 1553 1554 1555 1555 1555 1556 1556 1557
1525 1526 1527 1527 1528 1529 1530 1530 1531 1532 1533 1534 1534 1535 1536 1536 1537 1538 1539 1539 1540 1541 1541 1542 1542 1543 1543 1543 1543 1543 1544 1544 1542 1542 1543 1543 1543 1544 1544 1544 1544 1544 1544 1544 1543 1543 1543 1543 1543 1543 1543 1544 1546 1545 1546 1546 1545 1547 1550 1550 1549 1550 1549 1549 1550 1550 1551 1552 1552 1553 1553 1553 1554 1554 1554 1553 1552 1551 1551 1552 1553 1553 1554 1554 1555 1555 1555 1556
1525 1526 1526 1527 1528 1528 1529 1530 1531 1531 1532 1533 1534 1534 1535 1536 1537 1537 1538 1539 1540 1540 1541 1541 1542 1542 1542 1543 1543 1543 1543 1542 1542 1543 1543 1543 1544 1544 1544 1545 1544 1544 1544 1544 1543 1543 1543 1543 1543 1543 1544 1546 1547 1547 1547 1546 1546 1547 1549 1550 1549 1550 1549 1549 1550 1550 1551 1552 1552 1553 1553 1553 1553 1553 1553 1552 1550 1550 1551 1551 1552 1552 1553 1553 1554 1554 1554 1555
1524 1525 1526 1527 1527 1528 1529 1530 1530 1531 1532 1532 1533 1534 1534 1535 1536 1537 1538 1539 1539 1540 1541 1541 1542 1542 1542 1542 1543 1543 1542 1542 1542 1543 1543 1543 1544 1544 1545 1545 1544 1544 1544 1543 1543 1543 1544 1544 1544 1544 1545 1547 1547 1548 1548 1547 1547 1548 1549 1550 1550 1550 1550 1550 1550 1551 1551 1551 1552 1552 1552 1553 1553 1553 1552 1550 1549 1550 1550 1550 1550 1551 1551 1552 1552 1553 1553 1554
1524 1524 1525 1526 1527 1528 1528 1529 1530 1530 1531 1532 1532 1533 1534 1535 1535 1536 1537 1538 1539 1539 1540 1541 1541 1542 1542 1542 1542 1542 1541 1541 1542 1542 1543 1544 1544 1544 1545 1544 1544 1544 1543 1543 1543 1544 1544 1544 1544 1544 1546 1547 1548 1548 1548 1548 1549 1549 1549 1550 1550 1550 1550 1550 1550 1551 1551 1551 1552 1552 1553 1553 1553 1553 1550 1547 1548 1548 1549 1549 1549 1550 1550 1551 1551 1552 1552 1553
1523 1524 1524 1525 1526 1527 1528 1529 1529 1530 1531 1531 1531 1532 1533 1534 1535 1535 1536 1537 1538 1539 1539 1540 1541 1541 1541 1542 1542 1542 1540 1541 1542 1542 1543 1543 1544 1544 1544 1544 1544 1544 1543 1544 1544 1544 1544 1544 1545 1545 1546 1547 1548 1549 1549 1549 1550 1550 1550 1550 1550 1550 1550 1551 1550 1551 1551 1551 1552 1552 1553 1552 1553 1553 1548 1545 1547 1547 1547 1548 1548 1549 1549 1549 1550 1550 1551 1551
1522 1523 1524 1525 1526 1527 1527 1528 1529 1530 1530 1530 1531 1532 1532 1533 1534 1535 1535 1536 1537 1538 1539 1539 1540 1540 1541 1541 1542 1541 1539 1540 1541 1542 1543 1543 1543 1544 1544 1544 1544 1544 1544 1543 1544 1544 1544 1544 1545 1545 1545 1547 1548 1549 1549 1549 1550 1550 1550 1550 1550 1550 1550 1550 1550 1551 1551 1551 1551 1551 1552 1552 1553 1552 1545 1544 1545 1546 1546 1547 1547 1547 1548 1548 1549 1549 1550 1550
1521 1522 1523 1524 1525 1526 1527 1528 1528 1529 1530 1530 1531 1531 1532 1533 1533 1534 1534 1535 1536 1537 1538 1538 1539 1539 1540 1540 1539 1539 1539 1540 1541 1542 1542 1542 1543 1543 1544 1544 1544 1544 1543 1544 1544 1544 1544 1545 1545 1545 1546 1547 1548 1549 1550 1550 1551 1550 1551 1551 1551 1550 1549 1549 1549 1550 1550 1551 1550 1552 1553 1551 1550 1546 1542 1543 1544 1544 1545 1545 1546 1546 1546 1547 1547 1548 1548 1549
1520 1521 1522 1523 1524 1525 1526 1527 1528 1529 1529 1530 1530 1531 1532 1532 1533 1533 1533 1534 1535 1536 1537 1537 1538 1538 1539 1539 1537 1538 1539 1540 1540 1541 1542 1542 1543 1543 1543 1544 1544 1544 1543 1544 1544 1544 1545 1545 1545 1546 1546 1547 1548 1549 1549 1550 1550 1551 1552 1553 1553 1553 1550 1548 1548 1549 1550 1551 1549 1552 1554 1547 1543 1542 1540 1543 1543 1543 1544 1544 1544 1545 1545 1546 1546 1546 1546 1547
1519 1520 1521 1522 1523 1524 1525 1526 1527 1528 1529 1529 1530 1530 1531 1531 1532 1532 1533 1534 1534 1535 1536 1536 1537 1537 1538 1537 1536 1537 1538 1539 1540 1540 1541 1542 1542 1543 1543 1543 1544 1544 1543 1544 1544 1544 1544 1545 1546 1546 1547 1547 1548 1549 1550 1552 1552 1552 1554 1556 1559 1559 1551 1547 1549 1549 1549 1550 1549 1552 1554 1545 1539 1540 1540 1541 1541 1542 1542 1542 1543 1543 1544 1544 1544 1544 1544 1545
1518 1519 1520 1521 1522 1523 1524 1525 1526 1527 1528 1528 1529 1530 1530 1531 1531 1531 1532 1533 1533 1534 1534 1535 1536 1537 1537 1535 1534 1535 1536 1537 1538 1539 1540 1541 1541 1542 1542 1543 1543 1543 1543 1544 1544 1544 1545 1545 1546 1546 1548 1548 1548 1550 1552 1553 1554 1556 1556 1557 1564 1562 1553 1548 1547 1548 1547 1548 1549 1551 1553 1546 1539 1539 1539 1540 1541 1541 1541 1541 1541 1541 1542 1542 1542 1543 1543 1543
1516 1518 1519 1520 1521 1522 1523 1523 1524 1525 1526 1527 1528 1528 1529 1530 1530 1530 1531 1531 1532 1533 1534 1535 1535 1536 1536 1534 1533 1534 1534 1535 1536 1537 1539 1540 1541 1541 1542 1543 1543 1543 1543 1544 1544 1545 1545 1546 1546 1548 1548 1548 1550 1551 1554 1557 1557 1559 1559 1558 1561 1561 1558 1552 1547 1547 1547 1548 1549 1550 1550 1544 1539 1538 1538 1539 1540 1540 1540 1540 1540 1540 1540 1540 1540 1541 1541 1541
1515 1516 1517 1518 1519 1520 1521 1522 1523 1524 1524 1525 1526 1527 1528 1528 1529 1529 1530 1531 1531 1532 1533 1534 1534 1536 1534 1532 1532 1531 1531 1533 1534 1536 1537 1539 1540 1540 1541 1542 1542 1543 1543 1544 1544 1545 1545 1546 1547 1548 1549 1550 1552 1552 1557 1562 1559 1560 1562 1561 1560 1561 1560 1555 1547 1547 1548 1548 1549 1549 1549 1543 1537 1538 1539 1539 1539 1540 1539 1538 1538 1538 1538 1539 1539 1539 1538 1538
1513 1514 1515 1516 1517 1518 1519 1520 1521 1522 1523 1524 1525 1526 1526 1527 1527 1528 1529 1529 1530 1532 1533 1533 1534 1536 1533 1529 1529 1529 1529 1531 1533 1535 1536 1537 1539 1540 1541 1542 1542 1543 1543 1544 1544 1544 1545 1546 1547 1549 1550 1552 1552 1553 1557 1558 1553 1554 1558 1559 1559 1559 1560 1557 1550 1547 1548 1548 1548 1550 1550 1544 1538 1537 1538 1538 1539 1538 1536 1536 1536 1536 1536 1537 1536 1536 1535 1535
1512 1513 1513 1514 1515 1516 1517 1518 1519 1520 1522 1523 1524 1524 1525 1526 1527 1527 1527 1528 1529 1529 1530 1529 1529 1531 1528 1525 1526 1527 1528 1530 1531 1533 1535 1536 1537 1539 1540 1541 1542 1542 1543 1544 1544 1545 1545 1546 1549 1551 1551 1550 1549 1549 1549 1548 1547 1550 1553 1554 1554 1554 1556 1555 1551 1547 1547 1549 1549 1549 1547 1543 1538 1536 1535 1536 1537 1536 1535 1535 1535 1534 1534 1534 1533 1532 1532 1532
1511 1512 1512 1512 1513 1514 1515 1516 1517 1519 1520 1521 1522 1523 1524 1525 1526 1526 1526 1525 1524 1524 1524 1524 1524 1525 1524 1524 1525 1526 1528 1529 1530 1531 1533 1535 1536 1538 1540 1541 1542 1543 1543 1544 1544 1545 1546 1548 1550 1548 1544 1543 1545 1545 1545 1547 1550 1551 1553 1554 1554 1554 1553 1550 1548 1547 1547 1548 1546 1545 1545 1542 1538 1535 1533 1534 1536 1535 1534 1533 1532 1531 1530 1529 1528 1528 1528 1528
1510 1511 1511 1511 1512 1512 1514 1515 1516 1517 1518 1519 1521 1522 1522 1522 1523 1523 1522 1522 1522 1522 1522 1522 1523 1523 1523 1524 1524 1525 1527 1528 1529 1530 1532 1534 1536 1537 1539 1540 1541 1543 1543 1544 1545 1545 1546 1549 1547 1541 1538 1540 1543 1545 1546 1549 1551 1551 1553 1554 1555 1557 1553 1547 1547 1546 1547 1549 1544 1542 1544 1542 1538 1534 1531 1533 1534 1532 1530 1529 1527 1526 1525 1525 1524 1523 1524 1526
1509 1509 1509 1510 1510 1511 1512 1513 1514 1516 1517 1518 1519 1520 1520 1520 1521 1521 1521 1521 1520 1520 1521 1521 1522 1522 1523 1524 1524 1525 1526 1526 1528 1529 1530 1533 1534 1535 1537 1539 1540 1541 1543 1543 1545 1547 1550 1549 1542 1537 1539 1542 1544 1546 1548 1549 1551 1552 1555 1556 1556 1556 1552 1546 1546 1547 1547 1547 1543 1542 1544 1540 1535 1533 1530 1530 1529 1526 1524 1524 1522 1521 1520 1519 1519 1519 1521 1522
1508 1508 1509 1509 1509 1510 1510 1512 1513 1514 1515 1516 1517 1518 1519 1519 1520 1521 1521 1521 1519 1517 1518 1518 1519 1519 1521 1522 1522 1524 1524 1524 1526 1526 1529 1531 1532 1534 1535 1537 1539 1540 1543 1542 1543 1547 1549 1544 1536 1536 1540 1542 1544 1547 1548 1550 1552 1552 1554 1556 1555 1555 1553 1546 1544 1547 1547 1546 1544 1544 1544 1539 1533 1530 1527 1524 1523 1521 1520 1520 1517 1517 1516 1515 1515 1516 1517 1517
1505 1507 1507 1507 1508 1508 1509 1511 1511 1512 1514 1514 1515 1517 1518 1519 1520 1521 1521 1522 1519 1515 1514 1515 1516 1515 1517 1520 1521 1522 1522 1522 1523 1524 1526 1528 1530 1533 1533 1534 1538 1541 1542 1540 1539 1541 1539 1535 1533 1536 1539 1540 1543 1547 1548 1549 1551 1551 1552 1553 1551 1550 1550 1546 1546 1547 1546 1546 1546 1544 1543 1535 1528 1526 1521 1518 1520 1519 1516 1516 1513 1511 1511 1512 1513 1513 1512 1512
1503 1505 1505 1506 1507 1506 1508 1510 1509 1511 1512 1512 1515 1516 1518 1519 1520 1521 1522 1523 1520 1514 1512 1512 1512 1511 1513 1517 1518 1519 1521 1520 1520 1522 1523 1524 1527 1530 1532 1533 1536 1539 1540 1539 1541 1539 1535 1533 1534 1536 1539 1540 1542 1545 1546 1547 1549 1550 1547 1546 1545 1544 1546 1547 1548 1549 1548 1548 1547 1547 1545 1531 1520 1521 1519 1517 1520 1517 1513 1512 1509 1506 1507 1509 1508 1506 1507 1509
1501 1503 1503 1504 1505 1505 1507 1507 1508 1511 1510 1511 1513 1514 1517 1518 1520 1521 1521 1526 1523 1511 1509 1510 1509 1508 1508 1512 1514 1519 1523 1518 1516 1520 1521 1523 1525 1526 1530 1532 1532 1535 1537 1540 1542 1538 1533 1533 1533 1535 1538 1541 1542 1544 1544 1544 1549 1550 1543 1540 1542 1543 1546 1547 1548 1550 1550 1549 1549 1550 1548 1535 1520 1516 1514 1516 1517 1513 1510 1509 1505 1503 1503 1503 1501 1501 1504 1506
1498 1499 1501 1502 1502 1503 1504 1505 1508 1508 1507 1511 1511 1514 1517 1516 1521 1520 1521 1534 1524 1502 1503 1506 1505 1504 1503 1506 1509 1516 1520 1513 1512 1518 1518 1521 1524 1524 1527 1529 1531 1532 1534 1539 1540 1533 1530 1532 1534 1535 1537 1541 1542 1542 1540 1542 1547 1547 1541 1539 1541 1543 1545 1546 1547 1549 1549 1549 1550 1549 1550 1545 1527 1514 1512 1513 1513 1510 1508 1506 1502 1499 1497 1496 1497 1499 1501 1502
1495 1496 1498 1499 1499 1500 1502 1504 1505 1504 1507 1509 1509 1513 1515 1516 1520 1518 1525 1539 1517 1493 1497 1501 1500 1501 1502 1505 1507 1509 1511 1507 1510 1514 1515 1519 1522 1523 1525 1525 1527 1528 1529 1533 1534 1528 1527 1529 1531 1532 1535 1538 1537 1535 1535 1539 1542 1541 1541 1542 1542 1543 1545 1546 1547 1550 1552 1554 1551 1546 1550 1548 1526 1511 1515 1515 1512 1510 1506 1502 1497 1493 1492 1493 1495 1496 1498 1499
1493 1494 1495 1496 1497 1498 1500 1501 1501 1503 1507 1508 1509 1512 1513 1517 1518 1518 1532 1533 1504 1489 1495 1497 1498 1501 1501 1505 1507 1506 1507 1507 1508 1510 1513 1518 1519 1521 1522 1523 1525 1527 1527 1526 1525 1525 1526 1527 1527 1529 1531 1532 1531 1532 1534 1535 1537 1539 1542 1543 1544 1546 1548 1549 1549 1549 1554 1556 1549 1544 1548 1546 1520 1503 1513 1517 1512 1509 1502 1497 1492 1488 1490 1491 1492 1493 1494 1495
1489 1491 1492 1494 1494 1494 1496 1496 1497 1502 1505 1505 1507 1509 1512 1515 1516 1525 1539 1523 1495 1492 1496 1494 1497 1499 1499 1505 1507 1507 1506 1507 1508 1510 1514 1517 1518 1520 1520 1522 1525 1526 1527 1526 1525 1525 1526 1526 1527 1527 1527 1527 1529 1534 1535 1535 1536 1538 1541 1541 1544 1547 1547 1551 1552 1551 1554 1550 1542 1538 1540 1544 1528 1506 1507 1509 1503 1500 1496 1493 1489 1486 1488 1489 1489 1490 1491 1492
1485 1487 1489 1490 1489 1490 1491 1490 1493 1500 1502 1503 1505 1507 1510 1514 1518 1526 1527 1506 1492 1494 1494 1495 1497 1496 1497 1500 1503 1506 1507 1508 1509 1510 1513 1516 1518 1520 1521 1522 1525 1529 1532 1529 1526 1527 1527 1526 1526 1525 1525 1526 1528 1533 1536 1537 1537 1537 1538 1539 1544 1548 1549 1553 1554 1555 1556 1544 1535 1536 1539 1544 1533 1509 1502 1500 1495 1496 1494 1491 1488 1485 1487 1487 1487 1488 1488 1489
1482 1484 1486 1486 1486 1487 1486 1484 1491 1498 1499 1500 1503 1505 1509 1515 1519 1517 1507 1496 1493 1490 1487 1492 1495 1495 1497 1496 1498 1502 1504 1507 1508 1508 1510 1513 1516 1516 1515 1516 1519 1527 1532 1528 1526 1528 1526 1524 1525 1524 1524 1525 1526 1532 1538 1540 1539 1539 1539 1541 1548 1555 1557 1555 1557 1561 1558 1544 1539 1543 1543 1539 1521 1501 1497 1497 1493 1493 1492 1489 1487 1485 1486 1485 1486 1486 1486 1487
1479 1480 1482 1483 1482 1482 1482 1484 1492 1497 1497 1499 1502 1504 1508 1512 1509 1502 1495 1491 1488 1484 1483 1487 1490 1493 1496 1497 1499 1500 1502 1504 1506 1507 1508 1511 1514 1513 1511 1512 1513 1516 1520 1523 1528 1530 1526 1524 1525 1524 1523 1522 1521 1526 1533 1536 1538 1537 1536 1539 1546 1557 1561 1558 1561 1564 1553 1541 1543 1548 1544 1529 1509 1494 1492 1490 1487 1487 1487 1487 1486 1484 1484 1483 1483 1484 1484 1485
1476 1477 1478 1479 1478 1478 1480 1484 1489 1492 1494 1496 1498 1502 1506 1504 1496 1492 1491 1484 1481 1483 1485 1485 1489 1494 1495 1495 1496 1496 1500 1504 1504 1506 1508 1511 1515 1514 1512 1512 1512 1512 1515 1522 1527 1528 1526 1520 1516 1517 1516 1515 1515 1516 1518 1524 1532 1532 1530 1532 1536 1542 1547 1547 1549 1547 1539 1537 1543 1548 1539 1517 1500 1492 1488 1486 1486 1486 1485 1485 1485 1483 1482 1482 1481 1482 1482 1483
1473 1474 1474 1475 1475 1476 1478 1482 1485 1489 1491 1491 1496 1500 1500 1495 1490 1488 1485 1480 1481 1484 1486 1487 1490 1496 1497 1496 1496 1493 1495 1499 1503 1506 1508 1508 1509 1508 1506 1506 1507 1509 1513 1518 1520 1523 1525 1514 1507 1509 1509 1509 1511 1511 1513 1520 1529 1532 1531 1532 1531 1531 1530 1534 1542 1543 1543 1543 1541 1540 1528 1507 1496 1490 1486 1487 1486 1485 1484 1482 1483 1481 1479 1480 1479 1478 1479 1480
1470 1471 1472 1471 1471 1473 1475 1478 1482 1486 1486 1487 1492 1493 1486 1479 1477 1476 1473 1473 1477 1480 1486 1491 1491 1496 1499 1497 1497 1495 1492 1495 1501 1505 1506 1507 1504 1502 1500 1498 1499 1503 1503 1507 1512 1517 1520 1513 1509 1510 1509 1510 1511 1510 1513 1516 1521 1529 1533 1530 1529 1529 1526 1530 1543 1551 1553 1546 1531 1525 1515 1501 1497 1488 1481 1487 1485 1481 1483 1481 1480 1479 1477 1478 1476 1475 1477 1478
1467 1468 1469 1467 1468 1470 1472 1475 1479 1482 1482 1483 1485 1482 1475 1469 1466 1466 1465 1466 1470 1474 1481 1487 1488 1490 1494 1495 1494 1494 1493 1494 1500 1502 1503 1506 1501 1495 1496 1494 1494 1496 1494 1497 1503 1505 1507 1508 1509 1511 1510 1511 1512 1511 1514 1514 1515 1524 1529 1525 1527 1532 1530 1531 1539 1546 1553 1547 1528 1519 1512 1503 1502 1490 1479 1485 1484 1480 1481 1478 1477 1477 1476 1476 1473 1472 1475 1476
1465 1466 1464 1462 1465 1468 1470 1472 1475 1477 1478 1479 1479 1475 1471 1467 1463 1463 1464 1464 1467 1471 1475 1479 1480 1481 1485 1489 1490 1491 1491 1493 1498 1499 1499 1502 1495 1484 1488 1491 1489 1490 1490 1494 1499 1499 1502 1505 1509 1514 1512 1512 1513 1512 1515 1517 1516 1518 1519 1519 1522 1529 1532 1536 1538 1537 1544 1545 1528 1518 1515 1505 1498 1489 1478 1479 1479 1475 1476 1475 1475 1475 1474 1472 1469 1470 1473 1475
1463 1464 1460 1457 1462 1466 1468 1470 1472 1473 1473 1473 1475 1471 1464 1461 1460 1461 1464 1464 1464 1469 1472 1471 1472 1476 1480 1481 1483 1487 1488 1487 1492 1496 1493 1495 1490 1478 1479 1482 1483 1486 1488 1492 1496 1497 1500 1502 1507 1514 1514 1513 1513 1513 1515 1517 1519 1519 1519 1520 1520 1522 1525 1529 1532 1530 1532 1538 1529 1518 1511 1492 1481 1479 1473 1471 1472 1469 1470 1472 1473 1472 1470 1468 1468 1469 1471 1473
1462 1462 1455 1454 1459 1462 1465 1468 1469 1468 1465 1464 1467 1464 1458 1458 1460 1461 1462 1463 1463 1465 1468 1466 1467 1473 1475 1476 1479 1482 1483 1482 1486 1489 1486 1486 1484 1477 1476 1477 1479 1483 1487 1491 1492 1493 1499 1500 1503 1513 1517 1514 1510 1508 1507 1508 1513 1516 1518 1521 1521 1523 1525 1525 1527 1527 1526 1531 1531 1525 1508 1479 1468 1472 1467 1465 1468 1467 1468 1470 1471 1469 1466 1466 1468 1469 1470 1471
1460 1459 1452 1452 1457 1459 1463 1465 1464 1462 1461 1460 1461 1460 1458 1458 1459 1459 1460 1462 1461 1461 1462 1462 1465 1467 1469 1473 1475 1475 1478 1480 1482 1484 1482 1480 1478 1474 1472 1471 1474 1480 1486 1493 1492 1490 1495 1497 1501 1510 1514 1509 1503 1503 1503 1502 1504 1505 1507 1510 1511 1515 1521 1524 1526 1526 1523 1523 1522 1525 1510 1474 1461 1468 1465 1463 1466 1467 1468 1469 1468 1467 1465 1467 1468 1468 1469 1470
1455 1453 1449 1451 1455 1456 1460 1460 1458 1457 1457 1456 1456 1457 1457 1457 1457 1459 1459 1460 1460 1460 1460 1461 1462 1463 1464 1466 1468 1470 1475 1476 1478 1481 1477 1474 1471 1467 1466 1467 1470 1473 1479 1486 1486 1483 1487 1494 1498 1503 1505 1504 1502 1503 1505 1504 1503 1503 1504 1504 1505 1508 1510 1514 1518 1518 1520 1519 1514 1524 1516 1475 1457 1467 1467 1465 1466 1466 1469 1468 1466 1465 1464 1466 1468 1467 1469 1468
1451 1448 1447 1449 1452 1453 1457 1457 1455 1454 1452 1450 1451 1453 1455 1456 1457 1458 1458 1458 1459 1459 1460 1460 1460 1461 1460 1461 1464 1467 1470 1471 1472 1473 1471 1469 1467 1464 1464 1465 1468 1471 1474 1478 1480 1481 1485 1490 1494 1498 1501 1503 1503 1503 1504 1504 1504 1505 1504 1503 1504 1504 1501 1503 1506 1506 1513 1512 1509 1523 1518 1476 1459 1469 1468 1466 1467 1465 1467 1467 1465 1465 1464 1465 1467 1466 1467 1467
1447 1445 1445 1447 1449 1449 1451 1451 1451 1451 1449 1449 1451 1452 1454 1455 1455 1455 1455 1455 1456 1457 1458 1459 1458 1458 1458 1460 1462 1464 1465 1467 1467 1466 1465 1466 1464 1461 1463 1463 1465 1468 1469 1470 1471 1476 1483 1486 1489 1496 1502 1504 1506 1506 1504 1504 1504 1501 1500 1500 1499 1498 1501 1504 1504 1506 1508 1500 1499 1513 1503 1470 1462 1470 1466 1466 1467 1464 1465 1466 1465 1465 1464 1464 1465 1465 1466 1467
1445 1443 1442 1444 1446 1444 1442 1441 1442 1445 1446 1448 1450 1450 1452 1452 1451 1452 1452 1452 1453 1454 1455 1455 1455 1456 1458 1460 1462 1463 1462 1462 1464 1464 1464 1465 1462 1461 1462 1463 1463 1463 1462 1462 1463 1469 1477 1480 1482 1490 1495 1494 1493 1491 1488 1491 1498 1498 1494 1496 1496 1496 1500 1500 1502 1507 1503 1492 1493 1498 1481 1461 1463 1467 1463 1464 1465 1463 1463 1464 1464 1464 1463 1463 1464 1464 1465 1465
1444 1441 1439 1441 1441 1438 1435 1435 1437 1439 1441 1444 1446 1446 1447 1448 1447 1448 1450 1451 1451 1451 1452 1453 1453 1455 1457 1459 1461 1463 1462 1461 1463 1464 1464 1463 1461 1461 1461 1462 1462 1461 1460 1461 1462 1466 1473 1474 1473 1475 1476 1472 1469 1469 1471 1477 1488 1491 1487 1489 1492 1492 1494 1495 1499 1500 1493 1491 1493 1481 1467 1463 1462 1462 1463 1462 1462 1463 1463 1463 1462 1461 1462 1463 1463 1464 1464 1463
1441 1438 1435 1436 1435 1432 1431 1432 1433 1434 1435 1437 1439 1439 1441 1443 1443 1446 1448 1447 1447 1448 1450 1451 1451 1453 1455 1456 1458 1460 1459 1460 1462 1462 1462 1462 1460 1461 1461 1460 1461 1461 1461 1461 1460 1464 1469 1470 1468 1467 1466 1462 1460 1465 1470 1471 1476 1480 1480 1485 1488 1488 1492 1495 1492 1485 1483 1491 1486 1465 1465 1471 1457 1452 1461 1461 1461 1465 1463 1460 1460 1459 1461 1462 1461 1462 1462 1461
1437 1434 1431 1432 1430 1428 1427 1428 1428 1429 1429 1432 1433 1432 1435 1439 1440 1442 1444 1443 1444 1446 1448 1450 1450 1449 1448 1449 1452 1455 1456 1459 1461 1459 1459 1460 1460 1461 1461 1460 1461 1460 1461 1462 1462 1463 1465 1464 1463 1465 1465 1461 1459 1466 1470 1468 1469 1472 1475 1478 1481 1485 1489 1487 1482 1477 1477 1483 1471 1456 1466 1469 1449 1446 1458 1459 1460 1461 1457 1456 1457 1457 1459 1459 1459 1459 1459 1459
1432 1431 1430 1430 1429 1426 1425 1425 1426 1426 1425 1427 1429 1428 1429 1432 1434 1435 1437 1440 1443 1442 1444 1446 1445 1443 1443 1445 1448 1451 1452 1455 1456 1454 1453 1456 1458 1459 1459 1459 1459 1459 1460 1461 1462 1463 1463 1461 1460 1464 1466 1461 1460 1466 1469 1468 1469 1471 1472 1473 1474 1477 1478 1475 1473 1472 1473 1473 1463 1458 1468 1464 1446 1445 1453 1454 1456 1455 1452 1454 1455 1455 1456 1455 1456 1456 1455 1456
1428 1428 1427 1428 1427 1425 1424 1425 1427 1426 1424 1424 1424 1423 1423 1425 1427 1428 1430 1432 1436 1437 1438 1439 1436 1436 1439 1441 1444 1445 1443 1444 1445 1444 1445 1450 1453 1454 1454 1452 1453 1458 1461 1461 1462 1463 1463 1462 1461 1464 1467 1462 1459 1464 1468 1467 1468 1468 1469 1471 1470 1469 1470 1470 1470 1471 1475 1474 1465 1465 1471 1459 1442 1442 1449 1451 1452 1452 1451 1452 1452 1451 1452 1452 1452 1452 1452 1453
1424 1425 1425 1426 1426 1423 1423 1424 1426 1427 1424 1422 1421 1419 1418 1418 1419 1422 1423 1423 1425 1428 1430 1430 1430 1432 1436 1439 1440 1439 1436 1435 1436 1435 1436 1440 1442 1443 1446 1446 1447 1454 1460 1461 1461 1462 1463 1464 1464 1465 1467 1462 1457 1462 1467 1468 1470 1471 1468 1464 1461 1463 1466 1467 1467 1467 1469 1470 1468 1471 1470 1450 1436 1442 1448 1447 1449 1450 1450 1449 1448 1447 1448 1448 1449 1449 1449 1450
1420 1422 1423 1425 1424 1421 1420 1421 1424 1425 1422 1419 1419 1418 1416 1415 1415 1419 1422 1421 1421 1422 1424 1424 1425 1429 1433 1436 1435 1430 1428 1429 1431 1431 1434 1436 1436 1438 1443 1445 1446 1451 1457 1459 1460 1460 1461 1463 1464 1466 1465 1459 1456 1460 1464 1469 1474 1470 1458 1447 1447 1456 1462 1463 1462 1460 1460 1462 1465 1464 1454 1438 1434 1443 1446 1445 1447 1447 1444 1443 1443 1443 1444 1445 1446 1446 1446 1447